Location: Unspecified
(0.0000°N, 0.0000°E)
Time: 09:29:59
(UTC+00:00)

ARIANE 1 DEB - Pass Details

Date: 19 February 2026
Orbit: 1090 x 21662 km, 16.1° (Epoch: 9 December)

Event Time Altitude Azimuth Distance (km) Brightness Sun altitude
Rises 21:27:28 0° 271° (W) 10,591 ? -47.1°
Reaches altitude 10° 21:33:28 10° 269° (W) 10,903 ? -48.6°
Maximum altitude 02:12:30 71° 171° (S) 13,567 ? -58.4°
Drops below altitude 10° 03:03:02 10° 89° (E) 7,400 ? -46.5°
Sets 03:06:24 0° 86° (E) 7,602 ? -45.7°
